BEIDOU-2 G1

Last updated on Mon Jun 22 2026 00:03:03 GMT+0000 (Coordinated Universal Time)

1 36287U 10001A 26172.58123931 -.00000283 00000+0 00000+0 0 9990 2 36287 4.3048 60.4064 0002258 301.2394 257.8138 1.00268936 60214
UTC large
Height (km)
Speed (km/s)
/
Latitude / Longitude
Inclination (degrees)
Orbital Period (minutes)
Azimuth
Elevation
Range (km)
Doppler Factor

Next 0 passes for location: London (51.5072 / 0.1276)

No passes found over London.
BEIDOU-2 G1